Fredericton, New Brunswick

10:43 AM ADT on July 21, 2017 (GMT -0300)
Greater Fredericton Airport

Weather History for CYFC - September, 2012

Change the Weather History Date:

Wednesday, September 19, 2012

  Actual Average Record
Temperature  
Mean Temperature 56 °F -  
Max Temperature 70 °F 60 °F 82 °F (2015)
Min Temperature 42 °F 38 °F 28 °F (2008)
Degree Days  
Heating Degree Days 9    
Growing Degree Days 6 (Base 50)    
Moisture  
Dew Point 59 °F    
Average Humidity 90    
Maximum Humidity 100    
Minimum Humidity 64    
Precipitation  
Precipitation 0.59 in 0.12 in - ()
Sea Level Pressure  
Sea Level Pressure 29.88 in    
Wind  
Wind Speed 14 mph ()    
Max Wind Speed 28 mph    
Max Gust Speed 43 mph    
Visibility 6.9 miles    
Events Rain    
Averages and records for this station are not official NWS values.
T = Trace of Precipitation, MM = Missing Value Source: Averaged Metar Reports

Daily Weather History Graph

Daily Weather History Graph

Search for Another Location

Airport or City:

Trip Planner

Search our weather history database for the weather conditions in past years. The results will help you decide how hot, cold, wet, or windy it might be!

Date:

Astronomy

Sep. 19, 2012 Rise Set
Actual Time 7:09 AM ADT 7:28 PM ADT
Civil Twilight 6:40 AM ADT 7:58 PM ADT
Nautical Twilight 6:04 AM ADT 8:33 PM ADT
Astronomical Twilight 5:28 AM ADT 9:09 PM ADT
Moon 11:31 AM ADT (9/19) 9:17 PM ADT (9/19)
Length of Visible Light 13h 18m
Length of Day
12h 18m
Waxing Crescent, 16% of the Moon is Illuminated
Sep 19
Waxing Crescent
Sep 22
First Quarter
Sep 30
Full
Oct 8
Last Quarter
Oct 15
New

Hourly Weather History & Observations

Time (ADT) Temp. Dew Point Humidity Pressure Visibility Wind Dir Wind Speed Gust Speed Precip Events Conditions
12:00 AM 64.4 °F 55.4 °F 73% 29.94 in 9.0 mi SSE 13.8 mph 21.9 mph N/A   Mostly Cloudy
1:00 AM 66.2 °F 57.2 °F 73% 29.91 in 9.0 mi South 13.8 mph 24.2 mph N/A   Overcast
2:00 AM 66.2 °F 57.2 °F 73% 29.89 in 9.0 mi South 19.6 mph 29.9 mph N/A   Mostly Cloudy
2:36 AM 68.0 °F 57.2 °F 68% 29.88 in 9.0 mi South 18.4 mph 33.4 mph N/A Rain Light Rain
2:52 AM 66.2 °F 57.2 °F 73% 29.88 in 9.0 mi South 20.7 mph 28.8 mph N/A   Mostly Cloudy
3:00 AM 67 °F 58 °F 64% 29.88 in 10 mi South 19.6 mph - -  
3:00 AM 66.2 °F 57.2 °F 73% 29.87 in 9.0 mi South 19.6 mph 32.2 mph N/A   Mostly Cloudy
4:00 AM 68.0 °F 59.0 °F 73% 29.86 in 9.0 mi South 16.1 mph 26.5 mph N/A   Overcast
4:41 AM 68.0 °F 59.0 °F 73% 29.84 in 9.0 mi South 27.6 mph 34.5 mph N/A   Mostly Cloudy
5:00 AM 68.0 °F 59.0 °F 73% 29.83 in 9.0 mi South 16.1 mph 34.5 mph N/A   Mostly Cloudy
5:56 AM 68.0 °F 60.8 °F 78% 29.81 in 9.0 mi South 15.0 mph 33.4 mph N/A Rain Light Rain
6:00 AM 68.0 °F 60.8 °F 78% 29.81 in 9.0 mi South 17.3 mph 32.2 mph N/A Rain Light Rain
6:06 AM 68.0 °F 60.8 °F 78% 29.81 in 9.0 mi SSE 23.0 mph 38.0 mph N/A   Overcast
7:00 AM 68.0 °F 62.6 °F 83% 29.80 in 9.0 mi South 17.3 mph 31.1 mph N/A   Overcast
7:04 AM 68.0 °F 62.6 °F 83% 29.80 in 9.0 mi South 23.0 mph 31.1 mph N/A Rain Light Rain
7:15 AM 68.0 °F 62.6 °F 83% 29.80 in 9.0 mi South 23.0 mph 31.1 mph N/A Rain Light Rain
7:44 AM 68.0 °F 62.6 °F 83% 29.80 in 9.0 mi South 20.7 mph 29.9 mph N/A   Overcast
7:53 AM 68.0 °F 62.6 °F 83% 29.79 in 9.0 mi South 20.7 mph 29.9 mph N/A Rain Light Rain
8:00 AM 68.0 °F 64.4 °F 88% 29.80 in 9.0 mi South 25.3 mph 35.7 mph N/A Rain Light Rain
8:14 AM 68.0 °F 64.4 °F 88% 29.79 in 9.0 mi South 25.3 mph 42.6 mph N/A   Overcast
9:00 AM 70 °F 65 °F 80% 29.79 in 10 mi South 24.2 mph - - Rain Light Rain
9:00 AM 69.8 °F 64.4 °F 83% 29.78 in 9.0 mi South 21.9 mph 36.8 mph N/A Rain Light Rain
9:22 AM 68.0 °F 66.2 °F 94% 29.79 in 5.0 mi South 21.9 mph 34.5 mph N/A Rain Light Rain
9:37 AM 68.0 °F 68.0 °F 100% 29.79 in 6.0 mi South 23.0 mph 32.2 mph N/A Rain Light Rain
9:49 AM 68.0 °F 68.0 °F 100% 29.79 in 5.0 mi South 20.7 mph 32.2 mph N/A Rain Rain
9:55 AM 68.0 °F 68.0 °F 100% 29.78 in 3.0 mi South 16.1 mph 32.2 mph N/A Rain Rain
10:00 AM 68.0 °F 68.0 °F 100% 29.78 in 3.0 mi South 18.4 mph 26.5 mph N/A Rain Light Rain
10:07 AM 68.0 °F 68.0 °F 100% 29.78 in 6.0 mi South 19.6 mph 31.1 mph N/A Rain Light Rain
10:14 AM 68.0 °F 68.0 °F 100% 29.78 in 9.0 mi South 21.9 mph 29.9 mph N/A Rain Light Rain
11:00 AM 68.0 °F 68.0 °F 100% 29.79 in 9.0 mi South 13.8 mph 24.2 mph N/A Rain Light Rain
11:32 AM 68.0 °F 68.0 °F 100% 29.79 in 5.0 mi South 13.8 mph 21.9 mph N/A Rain Light Rain
11:55 AM 68.0 °F 68.0 °F 100% 29.79 in 4.0 mi South 12.7 mph 19.6 mph N/A Rain Rain
12:00 PM 68.0 °F 68.0 °F 100% 29.79 in 3.0 mi South 15.0 mph 20.7 mph N/A Rain Rain
12:16 PM 68.0 °F 68.0 °F 100% 29.79 in 3.0 mi South 13.8 mph 21.9 mph N/A Rain Rain
12:25 PM 68.0 °F 68.0 °F 100% 29.81 in 3.0 mi SSW 11.5 mph 17.3 mph N/A Rain Heavy Rain
12:30 PM 66.2 °F 62.6 °F 88% 29.82 in 2.5 mi West 13.8 mph 21.9 mph N/A Rain Heavy Rain
12:32 PM 62.6 °F 60.8 °F 94% 29.82 in 2.2 mi West 13.8 mph 21.9 mph N/A Rain Heavy Rain
12:37 PM 60.8 °F 60.8 °F 100% 29.83 in 1.8 mi West 11.5 mph 21.9 mph N/A Rain Heavy Rain
12:39 PM 60.8 °F 60.8 °F 100% 29.84 in 1.8 mi West 9.2 mph 21.9 mph N/A Rain Heavy Rain
12:40 PM 59.0 °F 59.0 °F 100% 29.83 in 2.0 mi West 9.2 mph 20.7 mph N/A Rain Heavy Rain
12:41 PM 59.0 °F 59.0 °F 100% 29.83 in 2.0 mi WNW 9.2 mph 17.3 mph N/A Rain Heavy Rain
12:43 PM 59.0 °F 59.0 °F 100% 29.84 in 2.5 mi West 8.1 mph 17.3 mph N/A Rain Heavy Rain
12:44 PM 59.0 °F 59.0 °F 100% 29.84 in 2.5 mi West 8.1 mph 17.3 mph N/A Rain Heavy Rain
12:45 PM 59.0 °F 59.0 °F 100% 29.84 in 2.5 mi West 6.9 mph - N/A Rain Rain
1:00 PM 59.0 °F 59.0 °F 100% 29.85 in 2.5 mi NW 10.4 mph 19.6 mph N/A Rain Light Rain
1:09 PM 57.2 °F 57.2 °F 100% 29.86 in 3.0 mi WNW 12.7 mph 19.6 mph N/A Rain Light Rain
1:16 PM 57.2 °F 57.2 °F 100% 29.86 in 5.0 mi NW 11.5 mph 19.6 mph N/A Rain Light Rain
1:17 PM 57.2 °F 57.2 °F 100% 29.86 in 6.0 mi NW 10.4 mph 19.6 mph N/A Rain Light Rain
1:18 PM 57.2 °F 57.2 °F 100% 29.86 in 6.0 mi NW 12.7 mph 19.6 mph N/A Rain Light Rain
1:21 PM 57.2 °F 57.2 °F 100% 29.86 in 8.0 mi NW 11.5 mph 19.6 mph N/A   Overcast
1:24 PM 57.2 °F 57.2 °F 100% 29.86 in 9.0 mi NW 12.7 mph 19.6 mph N/A   Overcast
1:29 PM 55.4 °F 55.4 °F 100% 29.87 in 9.0 mi NW 11.5 mph 17.3 mph N/A   Overcast
1:54 PM 55.4 °F 55.4 °F 100% 29.89 in 9.0 mi NW 12.7 mph 20.7 mph N/A   Overcast
2:00 PM 55.4 °F 55.4 °F 100% 29.89 in 9.0 mi WNW 10.4 mph 20.7 mph N/A   Overcast
2:05 PM 55.4 °F 55.4 °F 100% 29.89 in 9.0 mi West 8.1 mph 18.4 mph N/A   Overcast
3:00 PM 58 °F 52 °F 76% 29.92 in 10 mi WSW 4.6 mph - -   Clear
3:00 PM 57.2 °F 51.8 °F 82% 29.91 in 9.0 mi WSW 5.8 mph - N/A   Overcast
4:00 PM 59.0 °F 53.6 °F 82% 29.95 in 9.0 mi West 4.6 mph - N/A   Overcast
5:00 PM 57.2 °F 53.6 °F 88% 29.98 in 9.0 mi WSW 4.6 mph - N/A   Overcast
6:00 PM 59.0 °F 51.8 °F 77% 30.01 in 9.0 mi Variable 2.3 mph - N/A   Overcast
7:00 PM 57.2 °F 51.8 °F 82% 30.04 in 9.0 mi West 2.3 mph - N/A   Clear
8:00 PM 51.8 °F 50.0 °F 94% 30.07 in 9.0 mi WSW 3.5 mph - N/A   Clear
9:00 PM 52 °F 46 °F 72% 30.11 in 10 mi WNW 3.5 mph - -  
9:00 PM 51.8 °F 46.4 °F 82% 30.11 in 9.0 mi WNW 3.5 mph - N/A   Clear
10:00 PM 50.0 °F 44.6 °F 82% 30.15 in 9.0 mi West 4.6 mph - N/A   Clear
11:00 PM 46.4 °F 46.4 °F 100% 30.18 in 9.0 mi Variable 2.3 mph - N/A   Clear
11:18 PM 44.6 °F 44.6 °F 100% 30.19 in 5.0 mi Calm Calm - N/A   Clear
11:20 PM 44.6 °F 44.6 °F 100% 30.19 in 2.5 mi Calm Calm - N/A   Clear
11:28 PM 42.8 °F 42.8 °F 100% 30.19 in 3.0 mi Variable 2.3 mph - N/A   Clear
11:30 PM 44.6 °F 44.6 °F 100% 30.19 in 9.0 mi Variable 2.3 mph - N/A   Clear